Wetterdaten: Montag, 30.09.2013
Datum Zeit Temperatur Luftfeuchte Luftdruck Regen Wind Richtung Richtung Taupunkt Windchill Windben
30.09.2013 00:00 7,5 C 95 % 1009,1 hPa 0,0 l/m 1,4 km/h (1 Bft) N 360 6,8 C 7,7 C 2,3 km/h (1 Bft)
30.09.2013 00:05 7,5 C 95 % 1009,0 hPa 0,0 l/m 2,1 km/h (1 Bft) W 270 6,8 C 7,7 C 2,4 km/h (1 Bft)
30.09.2013 00:10 7,5 C 95 % 1009,0 hPa 0,0 l/m 1,6 km/h (1 Bft) N-NW 337 6,8 C 7,7 C 2,1 km/h (1 Bft)
30.09.2013 00:15 7,5 C 95 % 1009,0 hPa 0,0 l/m 1,3 km/h (1 Bft) N-NW 337 6,8 C 7,7 C 5,0 km/h (1 Bft)
30.09.2013 00:20 7,5 C 95 % 1009,0 hPa 0,0 l/m 1,4 km/h (1 Bft) N-NW 337 6,8 C 7,6 C 1,6 km/h (1 Bft)
30.09.2013 00:25 7,5 C 95 % 1008,9 hPa 0,0 l/m 1,1 km/h (1 Bft) N-NO 22 6,8 C 7,6 C 0,0 km/h (0 Bft)
30.09.2013 00:30 7,5 C 95 % 1008,9 hPa 0,0 l/m 1,0 km/h (0 Bft) N 360 6,8 C 7,6 C 2,6 km/h (1 Bft)
30.09.2013 00:35 7,5 C 95 % 1008,9 hPa 0,0 l/m 0,5 km/h (0 Bft) N 360 6,8 C 7,6 C 0,0 km/h (0 Bft)
30.09.2013 00:40 7,5 C 95 % 1008,9 hPa 0,0 l/m 0,5 km/h (0 Bft) N 360 6,8 C 7,6 C 0,0 km/h (0 Bft)
30.09.2013 00:45 7,5 C 95 % 1008,8 hPa 0,0 l/m 0,2 km/h (0 Bft) SO 135 6,8 C 7,6 C 0,0 km/h (0 Bft)
30.09.2013 00:50 7,5 C 95 % 1008,8 hPa 0,0 l/m 0,2 km/h (0 Bft) W-NW 292 6,8 C 7,6 C 0,0 km/h (0 Bft)
30.09.2013 00:55 7,5 C 95 % 1008,8 hPa 0,0 l/m 0,2 km/h (0 Bft) W-NW 292 6,8 C 7,6 C 0,0 km/h (0 Bft)
30.09.2013 01:00 7,5 C 95 % 1008,8 hPa 0,0 l/m 0,0 km/h (0 Bft) NW 315 6,8 C 7,6 C 0,0 km/h (0 Bft)
30.09.2013 01:05 7,6 C 95 % 1008,5 hPa 0,0 l/m 0,0 km/h (0 Bft) N 360 6,9 C 7,6 C 0,0 km/h (0 Bft)
30.09.2013 01:10 7,6 C 95 % 1008,5 hPa 0,0 l/m 0,2 km/h (0 Bft) NO 45 6,9 C 7,6 C 1,6 km/h (1 Bft)
30.09.2013 01:15 7,5 C 95 % 1008,5 hPa 0,0 l/m 0,0 km/h (0 Bft) W-SW 247 6,8 C 7,6 C 0,0 km/h (0 Bft)
30.09.2013 01:20 7,6 C 95 % 1008,5 hPa 0,0 l/m 0,0 km/h (0 Bft) W-SW 247 6,9 C 7,6 C 0,0 km/h (0 Bft)
30.09.2013 01:25 7,6 C 95 % 1008,9 hPa 0,0 l/m 0,0 km/h (0 Bft) W-SW 247 6,9 C 7,7 C 0,0 km/h (0 Bft)
30.09.2013 01:30 7,6 C 95 % 1008,9 hPa 0,0 l/m 0,0 km/h (0 Bft) W-SW 247 6,9 C 7,7 C 0,0 km/h (0 Bft)
30.09.2013 01:35 7,6 C 96 % 1008,9 hPa 0,0 l/m 0,0 km/h (0 Bft) NW 315 7,0 C 7,7 C 0,0 km/h (0 Bft)
30.09.2013 01:40 7,6 C 96 % 1008,9 hPa 0,0 l/m 0,0 km/h (0 Bft) W-SW 247 7,0 C 7,7 C 0,0 km/h (0 Bft)
30.09.2013 01:45 7,6 C 96 % 1008,9 hPa 0,0 l/m 0,0 km/h (0 Bft) SW 225 7,0 C 7,7 C 0,0 km/h (0 Bft)
30.09.2013 01:50 7,6 C 96 % 1008,9 hPa 0,0 l/m 0,0 km/h (0 Bft) S 180 7,0 C 7,7 C 0,0 km/h (0 Bft)
30.09.2013 01:55 7,6 C 96 % 1008,9 hPa 0,0 l/m 0,0 km/h (0 Bft) W-NW 292 7,0 C 7,7 C 0,0 km/h (0 Bft)
30.09.2013 02:00 7,6 C 96 % 1008,9 hPa 0,0 l/m 0,0 km/h (0 Bft) W 270 7,0 C 7,7 C 0,0 km/h (0 Bft)
30.09.2013 02:05 7,6 C 96 % 1008,9 hPa 0,0 l/m 0,0 km/h (0 Bft) W-SW 247 7,0 C 7,7 C 0,0 km/h (0 Bft)
30.09.2013 02:10 7,6 C 96 % 1008,9 hPa 0,0 l/m 0,2 km/h (0 Bft) W-NW 292 7,0 C 7,7 C 1,8 km/h (1 Bft)
30.09.2013 02:15 7,5 C 96 % 1008,9 hPa 0,0 l/m 0,3 km/h (0 Bft) W-NW 292 6,9 C 7,7 C 2,1 km/h (1 Bft)
30.09.2013 02:20 7,5 C 96 % 1008,9 hPa 0,7 l/m 0,5 km/h (0 Bft) W 270 6,9 C 7,6 C 0,0 km/h (0 Bft)
30.09.2013 02:25 7,5 C 96 % 1008,8 hPa 0,0 l/m 0,3 km/h (0 Bft) S-SW 202 6,9 C 7,6 C 0,0 km/h (0 Bft)
30.09.2013 02:30 7,5 C 96 % 1008,8 hPa 0,0 l/m 0,2 km/h (0 Bft) W-SW 247 6,9 C 7,6 C 0,0 km/h (0 Bft)
30.09.2013 02:35 7,5 C 96 % 1008,8 hPa 0,0 l/m 0,0 km/h (0 Bft) W-NW 292 6,9 C 7,6 C 0,0 km/h (0 Bft)
30.09.2013 02:40 7,5 C 96 % 1008,8 hPa 0,0 l/m 0,0 km/h (0 Bft) W-NW 292 6,9 C 7,6 C 0,0 km/h (0 Bft)
30.09.2013 02:45 7,5 C 96 % 1008,8 hPa 0,0 l/m 0,2 km/h (0 Bft) W-SW 247 6,9 C 7,6 C 1,9 km/h (1 Bft)
30.09.2013 02:50 7,5 C 96 % 1008,8 hPa 0,0 l/m 0,2 km/h (0 Bft) W-NW 292 6,9 C 7,6 C 0,0 km/h (0 Bft)
30.09.2013 02:55 7,5 C 96 % 1008,8 hPa 0,0 l/m 0,5 km/h (0 Bft) SW 225 6,9 C 7,6 C 0,0 km/h (0 Bft)
30.09.2013 03:00 7,4 C 96 % 1008,8 hPa 1,4 l/m 0,6 km/h (0 Bft) W 270 6,8 C 7,6 C 1,8 km/h (1 Bft)
30.09.2013 03:05 7,3 C 96 % 1008,6 hPa 0,0 l/m 0,3 km/h (0 Bft) N-NW 337 6,7 C 7,6 C 0,0 km/h (0 Bft)
30.09.2013 03:10 7,3 C 96 % 1008,6 hPa 1,4 l/m 0,5 km/h (0 Bft) N 360 6,7 C 7,5 C 2,3 km/h (1 Bft)
30.09.2013 03:15 7,3 C 96 % 1008,6 hPa 0,0 l/m 0,6 km/h (0 Bft) W 270 6,7 C 7,5 C 1,8 km/h (1 Bft)
30.09.2013 03:20 7,3 C 96 % 1008,6 hPa 0,0 l/m 0,5 km/h (0 Bft) SW 225 6,7 C 7,5 C 0,0 km/h (0 Bft)
30.09.2013 03:25 7,4 C 96 % 1008,3 hPa 0,0 l/m 0,6 km/h (0 Bft) W-NW 292 6,8 C 7,5 C 1,9 km/h (1 Bft)
30.09.2013 03:30 7,3 C 96 % 1008,3 hPa 0,0 l/m 0,5 km/h (0 Bft) W-NW 292 6,7 C 7,5 C 0,0 km/h (0 Bft)
30.09.2013 03:35 7,3 C 96 % 1008,3 hPa 0,7 l/m 0,2 km/h (0 Bft) W-NW 292 6,7 C 7,5 C 1,6 km/h (1 Bft)
30.09.2013 03:40 7,3 C 96 % 1008,3 hPa 0,0 l/m 0,0 km/h (0 Bft) N 360 6,7 C 7,5 C 0,0 km/h (0 Bft)
30.09.2013 03:45 7,4 C 96 % 1008,4 hPa 0,7 l/m 0,0 km/h (0 Bft) W-NW 292 6,8 C 7,6 C 0,0 km/h (0 Bft)
30.09.2013 03:50 7,4 C 96 % 1008,4 hPa 0,0 l/m 0,0 km/h (0 Bft) N-NW 337 6,8 C 7,6 C 0,0 km/h (0 Bft)
30.09.2013 03:55 7,3 C 96 % 1008,4 hPa 0,0 l/m 0,0 km/h (0 Bft) W-NW 292 6,7 C 7,5 C 0,0 km/h (0 Bft)
30.09.2013 04:00 7,4 C 96 % 1008,4 hPa 0,0 l/m 0,2 km/h (0 Bft) N 360 6,8 C 7,5 C 0,0 km/h (0 Bft)
30.09.2013 04:05 7,3 C 96 % 1008,2 hPa 0,0 l/m 0,2 km/h (0 Bft) N 360 6,7 C 7,5 C 0,0 km/h (0 Bft)
30.09.2013 04:10 7,3 C 96 % 1008,2 hPa 0,0 l/m 0,0 km/h (0 Bft) N 360 6,7 C 7,5 C 0,0 km/h (0 Bft)
30.09.2013 04:15 7,3 C 96 % 1008,2 hPa 0,0 l/m 0,2 km/h (0 Bft) N 360 6,7 C 7,5 C 1,6 km/h (1 Bft)
30.09.2013 04:20 7,3 C 96 % 1008,2 hPa 0,0 l/m 0,5 km/h (0 Bft) N 360 6,7 C 7,5 C 1,9 km/h (1 Bft)
30.09.2013 04:25 7,3 C 96 % 1008,2 hPa 0,0 l/m 1,6 km/h (1 Bft) N 360 6,7 C 7,5 C 5,6 km/h (1 Bft)
30.09.2013 04:30 7,2 C 96 % 1008,2 hPa 0,0 l/m 2,1 km/h (1 Bft) N-NW 337 6,6 C 7,5 C 3,7 km/h (1 Bft)
30.09.2013 04:35 7,3 C 96 % 1008,2 hPa 0,0 l/m 1,9 km/h (1 Bft) N-NO 22 6,7 C 7,5 C 0,0 km/h (0 Bft)
30.09.2013 04:40 7,2 C 96 % 1008,2 hPa 0,0 l/m 1,6 km/h (1 Bft) N-NO 22 6,6 C 7,5 C 0,0 km/h (0 Bft)
30.09.2013 04:45 7,3 C 96 % 1008,3 hPa 0,0 l/m 1,0 km/h (0 Bft) N-NW 337 6,7 C 7,5 C 3,2 km/h (1 Bft)
30.09.2013 04:50 7,3 C 96 % 1008,3 hPa 0,0 l/m 1,1 km/h (1 Bft) W-NW 292 6,7 C 7,5 C 1,6 km/h (1 Bft)
30.09.2013 04:55 7,3 C 96 % 1008,3 hPa 0,0 l/m 1,8 km/h (1 Bft) N 360 6,7 C 7,5 C 2,7 km/h (1 Bft)
30.09.2013 05:00 7,3 C 96 % 1008,3 hPa 0,0 l/m 1,8 km/h (1 Bft) N-NW 337 6,7 C 7,5 C 1,9 km/h (1 Bft)
30.09.2013 05:05 7,3 C 96 % 1008,2 hPa 0,0 l/m 1,1 km/h (1 Bft) N 360 6,7 C 7,5 C 0,0 km/h (0 Bft)
30.09.2013 05:10 7,3 C 96 % 1008,2 hPa 0,0 l/m 1,1 km/h (1 Bft) N 360 6,7 C 7,5 C 2,3 km/h (1 Bft)
30.09.2013 05:15 7,2 C 96 % 1008,2 hPa 0,0 l/m 1,3 km/h (1 Bft) N-NO 22 6,6 C 7,5 C 0,0 km/h (0 Bft)
30.09.2013 05:20 7,3 C 96 % 1008,2 hPa 0,0 l/m 0,6 km/h (0 Bft) W-NW 292 6,7 C 7,5 C 0,0 km/h (0 Bft)
30.09.2013 05:25 7,3 C 96 % 1008,1 hPa 0,0 l/m 0,2 km/h (0 Bft) N-NW 337 6,7 C 7,5 C 0,0 km/h (0 Bft)
30.09.2013 05:30 7,3 C 96 % 1008,1 hPa 0,0 l/m 0,3 km/h (0 Bft) N-NW 337 6,7 C 7,5 C 3,1 km/h (1 Bft)
30.09.2013 05:35 7,2 C 96 % 1008,1 hPa 0,0 l/m 1,4 km/h (1 Bft) W-NW 292 6,6 C 7,5 C 1,9 km/h (1 Bft)
30.09.2013 05:40 7,2 C 96 % 1008,1 hPa 0,0 l/m 1,8 km/h (1 Bft) N 360 6,6 C 7,5 C 1,9 km/h (1 Bft)
30.09.2013 05:45 7,2 C 96 % 1008,1 hPa 0,0 l/m 1,1 km/h (1 Bft) NO 45 6,6 C 7,5 C 0,0 km/h (0 Bft)
30.09.2013 05:50 7,2 C 96 % 1008,1 hPa 0,0 l/m 0,6 km/h (0 Bft) NW 315 6,6 C 7,5 C 0,0 km/h (0 Bft)
30.09.2013 05:55 7,2 C 96 % 1008,1 hPa 0,0 l/m 0,3 km/h (0 Bft) NW 315 6,6 C 7,5 C 0,0 km/h (0 Bft)
30.09.2013 06:00 7,2 C 96 % 1008,1 hPa 0,0 l/m 0,8 km/h (0 Bft) N 360 6,6 C 7,5 C 1,8 km/h (1 Bft)
30.09.2013 06:05 7,2 C 96 % 1007,9 hPa 0,0 l/m 1,4 km/h (1 Bft) N-NO 22 6,6 C 7,5 C 0,0 km/h (0 Bft)
30.09.2013 06:10 7,2 C 96 % 1007,9 hPa 0,0 l/m 1,9 km/h (1 Bft) W-NW 292 6,6 C 7,5 C 4,0 km/h (1 Bft)
30.09.2013 06:15 7,2 C 96 % 1007,9 hPa 0,0 l/m 1,6 km/h (1 Bft) N 360 6,6 C 7,5 C 0,0 km/h (0 Bft)
30.09.2013 06:20 7,2 C 96 % 1007,9 hPa 0,0 l/m 1,1 km/h (1 Bft) N 360 6,6 C 7,5 C 0,0 km/h (0 Bft)
30.09.2013 06:25 7,2 C 96 % 1008,1 hPa 0,0 l/m 1,9 km/h (1 Bft) S-SW 202 6,6 C 7,5 C 7,1 km/h (2 Bft)
30.09.2013 06:30 7,2 C 96 % 1008,1 hPa 0,0 l/m 2,3 km/h (1 Bft) N 360 6,6 C 7,5 C 0,0 km/h (0 Bft)
30.09.2013 06:35 7,2 C 96 % 1008,1 hPa 0,0 l/m 1,6 km/h (1 Bft) W-NW 292 6,6 C 7,5 C 0,0 km/h (0 Bft)
30.09.2013 06:40 7,2 C 96 % 1008,1 hPa 0,0 l/m 1,3 km/h (1 Bft) N-NW 337 6,6 C 7,5 C 0,0 km/h (0 Bft)
30.09.2013 06:45 7,2 C 96 % 1008,2 hPa 0,0 l/m 1,3 km/h (1 Bft) N-NW 337 6,6 C 7,5 C 0,0 km/h (0 Bft)
30.09.2013 06:50 7,2 C 96 % 1008,2 hPa 0,0 l/m 0,8 km/h (0 Bft) N-NW 337 6,6 C 7,5 C 0,0 km/h (0 Bft)
30.09.2013 06:55 7,1 C 96 % 1008,2 hPa 0,0 l/m 1,0 km/h (0 Bft) W-NW 292 6,5 C 7,4 C 2,7 km/h (1 Bft)
30.09.2013 07:00 7,1 C 96 % 1008,2 hPa 0,0 l/m 1,0 km/h (0 Bft) N-NW 337 6,5 C 7,4 C 2,1 km/h (1 Bft)
30.09.2013 07:05 7,1 C 96 % 1008,2 hPa 0,0 l/m 0,8 km/h (0 Bft) N-NW 337 6,5 C 7,4 C 0,0 km/h (0 Bft)
30.09.2013 07:10 7,1 C 96 % 1008,2 hPa 0,0 l/m 0,6 km/h (0 Bft) S-SW 202 6,5 C 7,4 C 0,0 km/h (0 Bft)
30.09.2013 07:15 7,1 C 96 % 1008,2 hPa 0,7 l/m 0,3 km/h (0 Bft) W 270 6,5 C 7,4 C 2,7 km/h (1 Bft)
30.09.2013 07:20 7,1 C 96 % 1008,2 hPa 0,0 l/m 0,8 km/h (0 Bft) N 360 6,5 C 7,4 C 3,2 km/h (1 Bft)
30.09.2013 07:25 7,1 C 96 % 1008,2 hPa 0,0 l/m 1,1 km/h (1 Bft) W-NW 292 6,5 C 7,4 C 2,1 km/h (1 Bft)
30.09.2013 07:30 7,1 C 96 % 1008,2 hPa 0,0 l/m 0,8 km/h (0 Bft) N-NW 337 6,5 C 7,3 C 0,0 km/h (0 Bft)
30.09.2013 07:35 7,1 C 96 % 1008,2 hPa 0,0 l/m 0,8 km/h (0 Bft) N 360 6,5 C 7,3 C 2,4 km/h (1 Bft)
30.09.2013 07:40 7,1 C 96 % 1008,2 hPa 0,0 l/m 0,8 km/h (0 Bft) N-NW 337 6,5 C 7,3 C 2,3 km/h (1 Bft)
30.09.2013 07:45 7,1 C 96 % 1008,1 hPa 0,0 l/m 1,0 km/h (0 Bft) NO 45 6,5 C 7,4 C 3,2 km/h (1 Bft)
30.09.2013 07:50 7,1 C 96 % 1008,1 hPa 0,0 l/m 0,8 km/h (0 Bft) N 360 6,5 C 7,4 C 3,9 km/h (1 Bft)
30.09.2013 07:55 7,1 C 96 % 1008,1 hPa 0,0 l/m 1,1 km/h (1 Bft) NW 315 6,5 C 7,4 C 2,1 km/h (1 Bft)
30.09.2013 08:00 7,2 C 96 % 1008,1 hPa 0,0 l/m 1,1 km/h (1 Bft) N-NW 337 6,6 C 7,4 C 2,6 km/h (1 Bft)
30.09.2013 08:05 7,2 C 96 % 1008,2 hPa 0,0 l/m 0,3 km/h (0 Bft) W-NW 292 6,6 C 7,5 C 0,0 km/h (0 Bft)
30.09.2013 08:10 7,2 C 96 % 1008,2 hPa 0,0 l/m 0,3 km/h (0 Bft) NW 315 6,6 C 7,5 C 3,1 km/h (1 Bft)
30.09.2013 08:15 7,2 C 96 % 1008,2 hPa 0,0 l/m 0,6 km/h (0 Bft) W-NW 292 6,6 C 7,5 C 2,6 km/h (1 Bft)
30.09.2013 08:20 7,2 C 96 % 1008,2 hPa 0,0 l/m 1,4 km/h (1 Bft) W-NW 292 6,6 C 7,5 C 3,1 km/h (1 Bft)
30.09.2013 08:25 7,1 C 96 % 1008,2 hPa 0,0 l/m 2,1 km/h (1 Bft) NW 315 6,5 C 7,5 C 3,9 km/h (1 Bft)
30.09.2013 08:30 7,2 C 96 % 1008,2 hPa 0,0 l/m 1,8 km/h (1 Bft) N 360 6,6 C 7,5 C 1,9 km/h (1 Bft)
30.09.2013 08:35 7,1 C 96 % 1008,2 hPa 0,0 l/m 1,9 km/h (1 Bft) N 360 6,5 C 7,5 C 2,4 km/h (1 Bft)
30.09.2013 08:40 7,2 C 96 % 1008,2 hPa 0,0 l/m 1,9 km/h (1 Bft) N-NW 337 6,6 C 7,5 C 0,0 km/h (0 Bft)
30.09.2013 08:45 7,2 C 96 % 1008,4 hPa 0,0 l/m 1,9 km/h (1 Bft) N 360 6,6 C 7,5 C 2,3 km/h (1 Bft)
30.09.2013 08:50 7,1 C 96 % 1008,4 hPa 0,0 l/m 1,8 km/h (1 Bft) SO 135 6,5 C 7,5 C 0,0 km/h (0 Bft)
30.09.2013 08:55 7,1 C 96 % 1008,4 hPa 0,0 l/m 1,6 km/h (1 Bft) W 270 6,5 C 7,5 C 0,0 km/h (0 Bft)
30.09.2013 09:00 7,2 C 96 % 1008,4 hPa 0,0 l/m 1,1 km/h (1 Bft) O-NO 67 6,6 C 7,5 C 0,0 km/h (0 Bft)
30.09.2013 09:05 7,1 C 96 % 1008,3 hPa 0,0 l/m 0,6 km/h (0 Bft) N 360 6,5 C 7,5 C 4,0 km/h (1 Bft)
30.09.2013 09:10 7,1 C 96 % 1008,3 hPa 0,0 l/m 1,1 km/h (1 Bft) N-NO 22 6,5 C 7,5 C 1,9 km/h (1 Bft)
30.09.2013 09:15 7,1 C 96 % 1008,3 hPa 0,0 l/m 2,4 km/h (1 Bft) N-NW 337 6,5 C 7,5 C 1,9 km/h (1 Bft)
30.09.2013 09:20 7,1 C 96 % 1008,3 hPa 0,0 l/m 2,4 km/h (1 Bft) N 360 6,5 C 7,4 C 4,0 km/h (1 Bft)
30.09.2013 09:25 7,1 C 96 % 1008,5 hPa 0,0 l/m 1,6 km/h (1 Bft) N-NW 337 6,5 C 7,4 C 0,0 km/h (0 Bft)
30.09.2013 09:30 7,1 C 96 % 1008,5 hPa 0,0 l/m 1,3 km/h (1 Bft) N-NW 337 6,5 C 7,5 C 1,6 km/h (1 Bft)
30.09.2013 09:35 7,0 C 96 % 1008,5 hPa 0,0 l/m 1,8 km/h (1 Bft) W-NW 292 6,4 C 7,4 C 0,0 km/h (0 Bft)
30.09.2013 09:40 7,1 C 96 % 1008,5 hPa 0,0 l/m 1,6 km/h (1 Bft) W 270 6,5 C 7,4 C 0,0 km/h (0 Bft)
30.09.2013 09:45 7,1 C 96 % 1008,4 hPa 0,0 l/m 1,3 km/h (1 Bft) N-NW 337 6,5 C 7,5 C 4,8 km/h (1 Bft)
30.09.2013 09:50 7,1 C 96 % 1008,4 hPa 0,0 l/m 2,4 km/h (1 Bft) N 360 6,5 C 7,4 C 3,2 km/h (1 Bft)
30.09.2013 09:55 7,1 C 96 % 1008,4 hPa 0,0 l/m 3,1 km/h (1 Bft) N-NW 337 6,5 C 7,4 C 3,2 km/h (1 Bft)
30.09.2013 10:00 7,1 C 96 % 1008,4 hPa 0,0 l/m 2,4 km/h (1 Bft) NW 315 6,5 C 7,4 C 2,9 km/h (1 Bft)
30.09.2013 10:05 7,2 C 96 % 1008,6 hPa 0,0 l/m 2,1 km/h (1 Bft) N-NW 337 6,6 C 7,5 C 3,7 km/h (1 Bft)
30.09.2013 10:10 7,2 C 96 % 1008,6 hPa 0,0 l/m 2,1 km/h (1 Bft) NW 315 6,6 C 7,5 C 0,0 km/h (0 Bft)
30.09.2013 10:15 7,1 C 96 % 1008,6 hPa 0,0 l/m 2,1 km/h (1 Bft) NW 315 6,5 C 7,5 C 4,8 km/h (1 Bft)
30.09.2013 10:20 7,1 C 96 % 1008,6 hPa 0,0 l/m 2,1 km/h (1 Bft) NW 315 6,5 C 7,5 C 2,6 km/h (1 Bft)
30.09.2013 10:25 7,1 C 96 % 1008,5 hPa 0,0 l/m 2,4 km/h (1 Bft) W-NW 292 6,5 C 7,4 C 4,0 km/h (1 Bft)
30.09.2013 10:30 7,1 C 96 % 1008,5 hPa 0,0 l/m 1,9 km/h (1 Bft) W-NW 292 6,5 C 7,4 C 3,2 km/h (1 Bft)
30.09.2013 10:35 7,1 C 96 % 1008,5 hPa 0,0 l/m 1,9 km/h (1 Bft) W-NW 292 6,5 C 7,5 C 3,7 km/h (1 Bft)
30.09.2013 10:40 7,1 C 96 % 1008,5 hPa 0,0 l/m 2,3 km/h (1 Bft) W-NW 292 6,5 C 7,5 C 1,9 km/h (1 Bft)
30.09.2013 10:45 7,1 C 96 % 1008,7 hPa 0,0 l/m 1,8 km/h (1 Bft) W-NW 292 6,5 C 7,5 C 1,8 km/h (1 Bft)
30.09.2013 10:50 7,2 C 96 % 1008,7 hPa 0,0 l/m 1,6 km/h (1 Bft) N-NO 22 6,6 C 7,6 C 2,7 km/h (1 Bft)
30.09.2013 10:55 7,1 C 96 % 1008,7 hPa 0,0 l/m 1,4 km/h (1 Bft) N-NO 22 6,5 C 7,7 C 0,0 km/h (0 Bft)
30.09.2013 11:00 7,3 C 96 % 1008,7 hPa 0,0 l/m 1,4 km/h (1 Bft) W-NW 292 6,7 C 7,8 C 2,9 km/h (1 Bft)
30.09.2013 11:05 7,5 C 96 % 1008,7 hPa 0,0 l/m 1,8 km/h (1 Bft) N 360 6,9 C 7,8 C 3,5 km/h (1 Bft)
30.09.2013 11:10 7,4 C 96 % 1008,7 hPa 0,0 l/m 2,4 km/h (1 Bft) W-NW 292 6,8 C 7,8 C 2,4 km/h (1 Bft)
30.09.2013 11:15 7,4 C 96 % 1008,7 hPa 0,0 l/m 2,7 km/h (1 Bft) NW 315 6,8 C 7,8 C 4,7 km/h (1 Bft)
30.09.2013 11:20 7,6 C 96 % 1008,7 hPa 0,0 l/m 2,7 km/h (1 Bft) W-NW 292 7,0 C 7,8 C 1,8 km/h (1 Bft)
30.09.2013 11:25 7,7 C 96 % 1008,9 hPa 0,0 l/m 1,6 km/h (1 Bft) N-NW 337 7,1 C 8,2 C 1,8 km/h (1 Bft)
30.09.2013 11:30 7,7 C 96 % 1008,9 hPa 0,0 l/m 2,3 km/h (1 Bft) W-SW 247 7,1 C 8,2 C 2,3 km/h (1 Bft)
30.09.2013 11:35 7,8 C 96 % 1008,9 hPa 0,0 l/m 2,1 km/h (1 Bft) W-NW 292 7,2 C 8,3 C 3,2 km/h (1 Bft)
30.09.2013 11:40 7,7 C 96 % 1008,9 hPa 0,0 l/m 1,4 km/h (1 Bft) NO 45 7,1 C 8,2 C 2,9 km/h (1 Bft)
30.09.2013 11:45 7,7 C 96 % 1008,8 hPa 0,0 l/m 1,9 km/h (1 Bft) S-SO 157 7,1 C 8,2 C 2,3 km/h (1 Bft)
30.09.2013 11:50 7,7 C 96 % 1008,8 hPa 0,0 l/m 1,9 km/h (1 Bft) N-NW 337 7,1 C 8,2 C 2,3 km/h (1 Bft)
30.09.2013 11:55 7,7 C 96 % 1008,8 hPa 0,0 l/m 1,6 km/h (1 Bft) N-NW 337 7,1 C 8,2 C 4,7 km/h (1 Bft)
30.09.2013 12:00 7,6 C 96 % 1008,8 hPa 0,0 l/m 1,9 km/h (1 Bft) N-NW 337 7,0 C 8,1 C 4,2 km/h (1 Bft)
30.09.2013 12:05 7,5 C 96 % 1008,9 hPa 0,0 l/m 2,9 km/h (1 Bft) W-NW 292 6,9 C 7,9 C 1,9 km/h (1 Bft)
30.09.2013 12:10 7,5 C 96 % 1008,9 hPa 0,0 l/m 3,2 km/h (1 Bft) W-NW 292 6,9 C 7,8 C 2,9 km/h (1 Bft)
30.09.2013 12:15 7,6 C 96 % 1008,9 hPa 0,0 l/m 2,4 km/h (1 Bft) N-NW 337 7,0 C 7,8 C 3,1 km/h (1 Bft)
30.09.2013 12:20 7,6 C 96 % 1008,9 hPa 0,0 l/m 2,3 km/h (1 Bft) W-NW 292 7,0 C 7,9 C 4,5 km/h (1 Bft)
30.09.2013 12:25 7,5 C 96 % 1008,9 hPa 0,0 l/m 3,1 km/h (1 Bft) N-NW 337 6,9 C 7,9 C 3,5 km/h (1 Bft)
30.09.2013 12:30 7,6 C 96 % 1008,9 hPa 0,0 l/m 2,9 km/h (1 Bft) W-NW 292 7,0 C 7,9 C 2,6 km/h (1 Bft)
30.09.2013 12:35 7,6 C 96 % 1008,9 hPa 0,0 l/m 2,4 km/h (1 Bft) W-SW 247 7,0 C 7,9 C 1,8 km/h (1 Bft)
30.09.2013 12:40 7,7 C 96 % 1008,9 hPa 0,0 l/m 2,7 km/h (1 Bft) NW 315 7,1 C 8,0 C 3,2 km/h (1 Bft)
30.09.2013 12:45 7,6 C 96 % 1009,1 hPa 0,0 l/m 1,6 km/h (1 Bft) N-NW 337 7,0 C 8,2 C 3,2 km/h (1 Bft)
30.09.2013 12:50 7,7 C 96 % 1009,1 hPa 0,0 l/m 1,9 km/h (1 Bft) W-NW 292 7,1 C 8,2 C 6,0 km/h (2 Bft)
30.09.2013 12:55 7,7 C 96 % 1009,1 hPa 0,0 l/m 2,9 km/h (1 Bft) N-NW 337 7,1 C 8,2 C 1,9 km/h (1 Bft)
30.09.2013 13:00 7,7 C 96 % 1009,1 hPa 0,0 l/m 2,9 km/h (1 Bft) N-NW 337 7,1 C 8,2 C 3,9 km/h (1 Bft)
30.09.2013 13:05 7,6 C 96 % 1009,1 hPa 0,0 l/m 3,4 km/h (1 Bft) N-NW 337 7,0 C 8,2 C 4,2 km/h (1 Bft)
30.09.2013 13:10 7,7 C 96 % 1009,1 hPa 0,0 l/m 3,5 km/h (1 Bft) W 270 7,1 C 8,2 C 2,4 km/h (1 Bft)
30.09.2013 13:15 7,6 C 96 % 1009,1 hPa 0,0 l/m 2,3 km/h (1 Bft) W-NW 292 7,0 C 8,2 C 2,9 km/h (1 Bft)
30.09.2013 13:20 7,7 C 96 % 1009,1 hPa 0,0 l/m 1,9 km/h (1 Bft) N-NW 337 7,1 C 8,2 C 4,3 km/h (1 Bft)
30.09.2013 13:25 7,6 C 96 % 1009,4 hPa 0,0 l/m 2,6 km/h (1 Bft) N 360 7,0 C 8,2 C 4,0 km/h (1 Bft)
30.09.2013 13:30 7,7 C 96 % 1009,4 hPa 0,0 l/m 2,1 km/h (1 Bft) N-NW 337 7,1 C 8,2 C 0,0 km/h (0 Bft)
30.09.2013 13:35 7,8 C 96 % 1009,4 hPa 0,0 l/m 1,0 km/h (0 Bft) N 360 7,2 C 8,3 C 3,5 km/h (1 Bft)
30.09.2013 13:40 7,7 C 96 % 1009,4 hPa 0,0 l/m 2,1 km/h (1 Bft) N 360 7,1 C 8,2 C 6,1 km/h (2 Bft)
30.09.2013 13:45 7,6 C 96 % 1009,4 hPa 0,0 l/m 2,7 km/h (1 Bft) W-SW 247 7,0 C 8,2 C 2,1 km/h (1 Bft)
30.09.2013 13:50 7,8 C 96 % 1009,4 hPa 0,0 l/m 1,6 km/h (1 Bft) W-NW 292 7,2 C 8,2 C 1,6 km/h (1 Bft)
30.09.2013 13:55 7,8 C 96 % 1009,4 hPa 0,0 l/m 1,4 km/h (1 Bft) W-SW 247 7,2 C 8,2 C 2,7 km/h (1 Bft)
30.09.2013 14:00 7,8 C 96 % 1009,4 hPa 0,0 l/m 1,8 km/h (1 Bft) N 360 7,2 C 8,2 C 1,9 km/h (1 Bft)
30.09.2013 14:05 7,7 C 96 % 1009,6 hPa 0,0 l/m 1,4 km/h (1 Bft) W-NW 292 7,1 C 8,2 C 2,7 km/h (1 Bft)
30.09.2013 14:10 7,8 C 96 % 1009,6 hPa 0,0 l/m 1,8 km/h (1 Bft) N 360 7,2 C 8,2 C 4,5 km/h (1 Bft)
30.09.2013 14:15 7,8 C 96 % 1009,6 hPa 0,0 l/m 1,4 km/h (1 Bft) N-NO 22 7,2 C 8,2 C 0,0 km/h (0 Bft)
30.09.2013 14:20 7,8 C 96 % 1009,6 hPa 0,0 l/m 0,8 km/h (0 Bft) NW 315 7,2 C 8,3 C 0,0 km/h (0 Bft)
30.09.2013 14:25 7,8 C 96 % 1009,3 hPa 0,0 l/m 0,8 km/h (0 Bft) N-NO 22 7,2 C 8,3 C 0,0 km/h (0 Bft)
30.09.2013 14:30 7,9 C 96 % 1009,3 hPa 0,0 l/m 0,8 km/h (0 Bft) N-NO 22 7,3 C 8,4 C 2,4 km/h (1 Bft)
30.09.2013 14:35 7,9 C 96 % 1009,3 hPa 0,0 l/m 0,6 km/h (0 Bft) NW 315 7,3 C 8,4 C 0,0 km/h (0 Bft)
30.09.2013 14:40 8,0 C 95 % 1009,3 hPa 0,0 l/m 0,6 km/h (0 Bft) N-NW 337 7,2 C 8,4 C 0,0 km/h (0 Bft)
30.09.2013 14:45 8,2 C 95 % 1009,6 hPa 0,0 l/m 0,3 km/h (0 Bft) W-NW 292 7,4 C 8,6 C 0,0 km/h (0 Bft)
30.09.2013 14:50 8,1 C 95 % 1009,6 hPa 0,0 l/m 0,6 km/h (0 Bft) N 360 7,3 C 8,5 C 1,9 km/h (1 Bft)
30.09.2013 14:55 7,9 C 96 % 1009,6 hPa 0,0 l/m 1,4 km/h (1 Bft) NW 315 7,3 C 8,4 C 0,0 km/h (0 Bft)
30.09.2013 15:00 7,9 C 96 % 1009,6 hPa 0,0 l/m 1,6 km/h (1 Bft) N-NO 22 7,3 C 8,4 C 3,9 km/h (1 Bft)
30.09.2013 15:05 7,9 C 96 % 1009,7 hPa 0,0 l/m 1,6 km/h (1 Bft) N-NW 337 7,3 C 8,4 C 0,0 km/h (0 Bft)
30.09.2013 15:10 7,9 C 96 % 1009,7 hPa 0,0 l/m 1,9 km/h (1 Bft) N-NW 337 7,3 C 8,4 C 2,3 km/h (1 Bft)
30.09.2013 15:15 7,8 C 96 % 1009,7 hPa 0,0 l/m 1,4 km/h (1 Bft) N-NO 22 7,2 C 8,4 C 0,0 km/h (0 Bft)
30.09.2013 15:20 7,8 C 96 % 1009,7 hPa 0,0 l/m 1,9 km/h (1 Bft) N 360 7,2 C 8,3 C 3,5 km/h (1 Bft)
30.09.2013 15:25 7,8 C 96 % 1009,9 hPa 0,0 l/m 2,3 km/h (1 Bft) N-NW 337 7,2 C 8,2 C 3,4 km/h (1 Bft)
30.09.2013 15:30 7,8 C 96 % 1009,9 hPa 0,0 l/m 2,1 km/h (1 Bft) NO 45 7,2 C 8,2 C 2,4 km/h (1 Bft)
30.09.2013 15:35 7,9 C 96 % 1009,9 hPa 0,0 l/m 1,9 km/h (1 Bft) N 360 7,3 C 8,2 C 2,9 km/h (1 Bft)
30.09.2013 15:40 7,9 C 96 % 1009,9 hPa 0,0 l/m 1,9 km/h (1 Bft) N 360 7,3 C 8,2 C 3,1 km/h (1 Bft)
30.09.2013 15:45 7,9 C 96 % 1009,8 hPa 0,0 l/m 1,9 km/h (1 Bft) N-NO 22 7,3 C 8,3 C 0,0 km/h (0 Bft)
30.09.2013 15:50 8,0 C 95 % 1009,8 hPa 0,0 l/m 1,9 km/h (1 Bft) N-NW 337 7,2 C 8,3 C 0,0 km/h (0 Bft)
30.09.2013 15:55 7,8 C 96 % 1009,8 hPa 0,0 l/m 1,9 km/h (1 Bft) N-NW 337 7,2 C 8,3 C 3,7 km/h (1 Bft)
30.09.2013 16:00 7,8 C 96 % 1009,8 hPa 0,0 l/m 1,9 km/h (1 Bft) N-NW 337 7,2 C 8,3 C 0,0 km/h (0 Bft)
30.09.2013 16:05 7,8 C 96 % 1009,8 hPa 0,0 l/m 2,6 km/h (1 Bft) NW 315 7,2 C 8,2 C 3,4 km/h (1 Bft)
30.09.2013 16:10 8,0 C 95 % 1009,8 hPa 0,0 l/m 2,4 km/h (1 Bft) N 360 7,2 C 8,2 C 3,4 km/h (1 Bft)
30.09.2013 16:15 7,9 C 96 % 1009,8 hPa 0,0 l/m 2,1 km/h (1 Bft) W-NW 292 7,3 C 8,2 C 2,4 km/h (1 Bft)
30.09.2013 16:20 8,0 C 95 % 1009,8 hPa 0,0 l/m 1,3 km/h (1 Bft) N 360 7,2 C 8,3 C 3,2 km/h (1 Bft)
30.09.2013 16:25 7,8 C 96 % 1009,8 hPa 0,0 l/m 1,0 km/h (0 Bft) O 90 7,2 C 8,3 C 2,1 km/h (1 Bft)
30.09.2013 16:30 7,9 C 96 % 1009,8 hPa 0,0 l/m 1,1 km/h (1 Bft) N-NW 337 7,3 C 8,2 C 0,0 km/h (0 Bft)
30.09.2013 16:35 7,8 C 96 % 1009,8 hPa 0,0 l/m 1,3 km/h (1 Bft) W-NW 292 7,2 C 8,2 C 5,1 km/h (1 Bft)
30.09.2013 16:40 7,7 C 96 % 1009,8 hPa 0,0 l/m 1,6 km/h (1 Bft) NW 315 7,1 C 8,1 C 1,8 km/h (1 Bft)
30.09.2013 16:45 7,7 C 96 % 1009,9 hPa 0,0 l/m 2,1 km/h (1 Bft) N-NW 337 7,1 C 8,0 C 2,3 km/h (1 Bft)
30.09.2013 16:50 7,7 C 96 % 1009,9 hPa 0,0 l/m 2,1 km/h (1 Bft) W-NW 292 7,1 C 8,0 C 0,0 km/h (0 Bft)
30.09.2013 16:55 7,8 C 96 % 1009,9 hPa 0,0 l/m 2,1 km/h (1 Bft) W-NW 292 7,2 C 8,0 C 1,9 km/h (1 Bft)
30.09.2013 17:00 7,8 C 96 % 1009,9 hPa 0,0 l/m 1,6 km/h (1 Bft) W 270 7,2 C 8,0 C 0,0 km/h (0 Bft)
30.09.2013 17:05 7,7 C 96 % 1009,9 hPa 0,0 l/m 0,8 km/h (0 Bft) W-NW 292 7,1 C 8,1 C 2,6 km/h (1 Bft)
30.09.2013 17:10 7,7 C 96 % 1009,9 hPa 0,0 l/m 0,8 km/h (0 Bft) W-NW 292 7,1 C 8,0 C 0,0 km/h (0 Bft)
30.09.2013 17:15 7,7 C 96 % 1009,9 hPa 0,0 l/m 1,8 km/h (1 Bft) W-NW 292 7,1 C 8,0 C 2,4 km/h (1 Bft)
30.09.2013 17:20 7,7 C 96 % 1009,9 hPa 0,0 l/m 1,4 km/h (1 Bft) N-NW 337 7,1 C 8,0 C 1,6 km/h (1 Bft)
30.09.2013 17:25 7,7 C 96 % 1009,9 hPa 0,7 l/m 1,1 km/h (1 Bft) N-NO 22 7,1 C 8,0 C 4,5 km/h (1 Bft)
30.09.2013 17:30 7,6 C 96 % 1009,9 hPa 0,0 l/m 1,4 km/h (1 Bft) N 360 7,0 C 7,9 C 1,9 km/h (1 Bft)
30.09.2013 17:35 7,6 C 96 % 1009,9 hPa 0,0 l/m 1,6 km/h (1 Bft) N 360 7,0 C 7,8 C 2,1 km/h (1 Bft)
30.09.2013 17:40 7,6 C 96 % 1009,9 hPa 0,0 l/m 1,4 km/h (1 Bft) N-NW 337 7,0 C 7,8 C 0,0 km/h (0 Bft)
30.09.2013 17:45 7,6 C 96 % 1009,9 hPa 0,0 l/m 1,1 km/h (1 Bft) W-NW 292 7,0 C 7,9 C 2,3 km/h (1 Bft)
30.09.2013 17:50 7,5 C 96 % 1009,9 hPa 0,0 l/m 1,4 km/h (1 Bft) O 90 6,9 C 7,8 C 2,4 km/h (1 Bft)
30.09.2013 17:55 7,6 C 96 % 1009,9 hPa 0,0 l/m 1,3 km/h (1 Bft) W 270 7,0 C 7,8 C 1,6 km/h (1 Bft)
30.09.2013 18:00 7,6 C 96 % 1009,9 hPa 0,0 l/m 0,8 km/h (0 Bft) N-NW 337 7,0 C 7,8 C 0,0 km/h (0 Bft)
30.09.2013 18:05 7,5 C 96 % 1010,2 hPa 0,0 l/m 0,8 km/h (0 Bft) N-NW 337 6,9 C 7,8 C 3,9 km/h (1 Bft)
30.09.2013 18:10 7,5 C 96 % 1010,2 hPa 0,0 l/m 0,6 km/h (0 Bft) O 90 6,9 C 7,8 C 0,0 km/h (0 Bft)
30.09.2013 18:15 7,6 C 96 % 1010,2 hPa 0,0 l/m 1,0 km/h (0 Bft) O 90 7,0 C 7,8 C 0,0 km/h (0 Bft)
30.09.2013 18:20 7,6 C 96 % 1010,2 hPa 0,0 l/m 0,8 km/h (0 Bft) N-NW 337 7,0 C 7,8 C 3,4 km/h (1 Bft)
30.09.2013 18:25 7,5 C 96 % 1010,1 hPa 0,0 l/m 0,6 km/h (0 Bft) N 360 6,9 C 7,8 C 3,1 km/h (1 Bft)
30.09.2013 18:30 7,5 C 96 % 1010,1 hPa 0,0 l/m 0,8 km/h (0 Bft) O 90 6,9 C 7,8 C 0,0 km/h (0 Bft)
30.09.2013 18:35 7,5 C 96 % 1010,1 hPa 0,0 l/m 0,3 km/h (0 Bft) NO 45 6,9 C 7,8 C 1,8 km/h (1 Bft)
30.09.2013 18:40 7,5 C 96 % 1010,1 hPa 0,0 l/m 0,2 km/h (0 Bft) NO 45 6,9 C 7,8 C 1,8 km/h (1 Bft)
30.09.2013 18:45 7,5 C 96 % 1010,4 hPa 0,0 l/m 0,0 km/h (0 Bft) O-NO 67 6,9 C 7,8 C 0,0 km/h (0 Bft)
30.09.2013 18:50 7,5 C 96 % 1010,4 hPa 0,0 l/m 0,0 km/h (0 Bft) O-SO 112 6,9 C 7,8 C 0,0 km/h (0 Bft)
30.09.2013 18:55 7,5 C 96 % 1010,4 hPa 0,0 l/m 0,0 km/h (0 Bft) N 360 6,9 C 7,8 C 0,0 km/h (0 Bft)
30.09.2013 19:00 7,5 C 96 % 1010,4 hPa 0,0 l/m 0,0 km/h (0 Bft) NO 45 6,9 C 7,8 C 0,0 km/h (0 Bft)
30.09.2013 19:05 7,5 C 96 % 1010,5 hPa 0,0 l/m 0,0 km/h (0 Bft) O-NO 67 6,9 C 7,8 C 0,0 km/h (0 Bft)
30.09.2013 19:10 7,5 C 96 % 1010,5 hPa 0,0 l/m 0,0 km/h (0 Bft) N-NO 22 6,9 C 7,8 C 0,0 km/h (0 Bft)
30.09.2013 19:15 7,5 C 96 % 1010,5 hPa 0,0 l/m 0,0 km/h (0 Bft) N 360 6,9 C 7,8 C 0,0 km/h (0 Bft)
30.09.2013 19:20 7,5 C 96 % 1010,5 hPa 0,0 l/m 0,0 km/h (0 Bft) N 360 6,9 C 7,8 C 0,0 km/h (0 Bft)
30.09.2013 19:25 7,5 C 96 % 1010,6 hPa 0,0 l/m 0,2 km/h (0 Bft) N-NO 22 6,9 C 7,8 C 0,0 km/h (0 Bft)
30.09.2013 19:30 7,5 C 96 % 1010,6 hPa 0,0 l/m 0,3 km/h (0 Bft) N-NW 337 6,9 C 7,8 C 0,0 km/h (0 Bft)
30.09.2013 19:35 7,5 C 96 % 1010,6 hPa 0,0 l/m 0,0 km/h (0 Bft) W-NW 292 6,9 C 7,8 C 0,0 km/h (0 Bft)
30.09.2013 19:40 7,5 C 96 % 1010,6 hPa 0,0 l/m 0,2 km/h (0 Bft) W-NW 292 6,9 C 7,8 C 0,0 km/h (0 Bft)
30.09.2013 19:45 7,5 C 96 % 1010,9 hPa 0,0 l/m 0,2 km/h (0 Bft) N-NO 22 6,9 C 7,8 C 0,0 km/h (0 Bft)
30.09.2013 19:50 7,5 C 96 % 1010,9 hPa 0,0 l/m 0,0 km/h (0 Bft) N-NO 22 6,9 C 7,8 C 0,0 km/h (0 Bft)
30.09.2013 19:55 7,5 C 96 % 1010,9 hPa 0,0 l/m 0,2 km/h (0 Bft) N-NW 337 6,9 C 7,8 C 0,0 km/h (0 Bft)
30.09.2013 20:00 7,5 C 96 % 1010,9 hPa 0,0 l/m 0,2 km/h (0 Bft) W 270 6,9 C 7,8 C 0,0 km/h (0 Bft)
30.09.2013 20:05 7,5 C 96 % 1010,6 hPa 0,0 l/m 0,2 km/h (0 Bft) W-NW 292 6,9 C 7,8 C 2,1 km/h (1 Bft)
30.09.2013 20:10 7,5 C 96 % 1010,6 hPa 0,0 l/m 0,5 km/h (0 Bft) NW 315 6,9 C 7,8 C 0,0 km/h (0 Bft)
30.09.2013 20:15 7,5 C 96 % 1010,6 hPa 0,0 l/m 0,8 km/h (0 Bft) NW 315 6,9 C 7,8 C 3,5 km/h (1 Bft)
30.09.2013 20:20 7,5 C 96 % 1010,6 hPa 0,0 l/m 0,8 km/h (0 Bft) N 360 6,9 C 7,8 C 2,3 km/h (1 Bft)
30.09.2013 20:25 7,5 C 96 % 1010,5 hPa 0,0 l/m 1,4 km/h (1 Bft) W-NW 292 6,9 C 7,8 C 2,3 km/h (1 Bft)
30.09.2013 20:30 7,5 C 96 % 1010,5 hPa 0,0 l/m 1,4 km/h (1 Bft) W-NW 292 6,9 C 7,7 C 0,0 km/h (0 Bft)
30.09.2013 20:35 7,5 C 96 % 1010,5 hPa 0,0 l/m 1,4 km/h (1 Bft) NW 315 6,9 C 7,8 C 1,6 km/h (1 Bft)
30.09.2013 20:40 7,5 C 96 % 1010,5 hPa 0,0 l/m 1,1 km/h (1 Bft) W-NW 292 6,9 C 7,7 C 2,4 km/h (1 Bft)
30.09.2013 20:45 7,5 C 96 % 1010,8 hPa 0,0 l/m 1,6 km/h (1 Bft) NW 315 6,9 C 7,7 C 2,6 km/h (1 Bft)
30.09.2013 20:50 7,5 C 96 % 1010,8 hPa 0,0 l/m 1,3 km/h (1 Bft) NW 315 6,9 C 7,7 C 1,8 km/h (1 Bft)
30.09.2013 20:55 7,5 C 96 % 1010,8 hPa 0,0 l/m 0,8 km/h (0 Bft) N-NO 22 6,9 C 7,8 C 0,0 km/h (0 Bft)
30.09.2013 21:00 7,5 C 96 % 1010,8 hPa 0,0 l/m 0,5 km/h (0 Bft) N-NO 22 6,9 C 7,8 C 0,0 km/h (0 Bft)
30.09.2013 21:05 7,5 C 96 % 1010,8 hPa 0,0 l/m 0,3 km/h (0 Bft) W-NW 292 6,9 C 7,8 C 0,0 km/h (0 Bft)
30.09.2013 21:10 7,5 C 96 % 1010,8 hPa 0,0 l/m 0,6 km/h (0 Bft) NO 45 6,9 C 7,8 C 0,0 km/h (0 Bft)
30.09.2013 21:15 7,5 C 96 % 1010,8 hPa 0,0 l/m 0,3 km/h (0 Bft) W-SW 247 6,9 C 7,8 C 0,0 km/h (0 Bft)
30.09.2013 21:20 7,5 C 96 % 1010,8 hPa 0,0 l/m 0,5 km/h (0 Bft) N-NO 22 6,9 C 7,8 C 0,0 km/h (0 Bft)
30.09.2013 21:25 7,6 C 96 % 1010,8 hPa 0,0 l/m 0,6 km/h (0 Bft) W-NW 292 7,0 C 7,8 C 0,0 km/h (0 Bft)
30.09.2013 21:30 7,6 C 96 % 1010,8 hPa 0,0 l/m 0,3 km/h (0 Bft) W-NW 292 7,0 C 7,8 C 0,0 km/h (0 Bft)
30.09.2013 21:35 7,6 C 96 % 1010,8 hPa 0,0 l/m 0,3 km/h (0 Bft) N-NW 337 7,0 C 7,8 C 2,1 km/h (1 Bft)
30.09.2013 21:40 7,6 C 96 % 1010,8 hPa 0,0 l/m 0,2 km/h (0 Bft) N 360 7,0 C 7,8 C 0,0 km/h (0 Bft)
30.09.2013 21:45 7,6 C 96 % 1010,9 hPa 0,0 l/m 0,3 km/h (0 Bft) W-NW 292 7,0 C 7,8 C 0,0 km/h (0 Bft)
30.09.2013 21:50 7,6 C 96 % 1010,9 hPa 0,0 l/m 0,2 km/h (0 Bft) W-NW 292 7,0 C 7,8 C 0,0 km/h (0 Bft)
30.09.2013 21:55 7,6 C 96 % 1010,9 hPa 0,0 l/m 0,2 km/h (0 Bft) O-NO 67 7,0 C 7,9 C 1,8 km/h (1 Bft)
30.09.2013 22:00 7,6 C 96 % 1010,9 hPa 0,0 l/m 0,3 km/h (0 Bft) N 360 7,0 C 7,9 C 0,0 km/h (0 Bft)
30.09.2013 22:05 7,6 C 96 % 1011,0 hPa 0,0 l/m 0,3 km/h (0 Bft) NW 315 7,0 C 7,9 C 2,9 km/h (1 Bft)
30.09.2013 22:10 7,6 C 96 % 1011,0 hPa 0,0 l/m 1,0 km/h (0 Bft) N-NW 337 7,0 C 7,8 C 3,2 km/h (1 Bft)
30.09.2013 22:15 7,6 C 96 % 1011,0 hPa 0,0 l/m 1,8 km/h (1 Bft) N-NW 337 7,0 C 7,8 C 0,0 km/h (0 Bft)
30.09.2013 22:20 7,6 C 96 % 1011,0 hPa 0,0 l/m 1,6 km/h (1 Bft) NO 45 7,0 C 7,8 C 0,0 km/h (0 Bft)
30.09.2013 22:25 7,6 C 96 % 1011,0 hPa 0,0 l/m 1,0 km/h (0 Bft) N 360 7,0 C 7,8 C 1,9 km/h (1 Bft)
30.09.2013 22:30 7,6 C 96 % 1011,0 hPa 0,0 l/m 0,8 km/h (0 Bft) N-NW 337 7,0 C 7,8 C 2,1 km/h (1 Bft)
30.09.2013 22:35 7,6 C 96 % 1011,0 hPa 0,0 l/m 1,3 km/h (1 Bft) N 360 7,0 C 7,8 C 4,7 km/h (1 Bft)
30.09.2013 22:40 7,6 C 96 % 1011,0 hPa 0,0 l/m 1,4 km/h (1 Bft) W 270 7,0 C 7,8 C 0,0 km/h (0 Bft)
30.09.2013 22:45 7,6 C 96 % 1011,1 hPa 0,0 l/m 1,3 km/h (1 Bft) N 360 7,0 C 7,8 C 2,6 km/h (1 Bft)
30.09.2013 22:50 7,6 C 96 % 1011,1 hPa 0,0 l/m 1,0 km/h (0 Bft) N 360 7,0 C 7,8 C 2,3 km/h (1 Bft)
30.09.2013 22:55 7,6 C 96 % 1011,1 hPa 0,0 l/m 1,3 km/h (1 Bft) W-NW 292 7,0 C 7,8 C 1,9 km/h (1 Bft)
30.09.2013 23:00 7,6 C 96 % 1011,1 hPa 0,0 l/m 0,6 km/h (0 Bft) N 360 7,0 C 7,8 C 0,0 km/h (0 Bft)
30.09.2013 23:05 7,6 C 96 % 1011,5 hPa 0,0 l/m 0,5 km/h (0 Bft) W 270 7,0 C 7,8 C 0,0 km/h (0 Bft)
30.09.2013 23:10 7,6 C 96 % 1011,5 hPa 0,0 l/m 0,5 km/h (0 Bft) N-NW 337 7,0 C 7,8 C 0,0 km/h (0 Bft)
30.09.2013 23:15 7,6 C 96 % 1011,5 hPa 0,0 l/m 1,0 km/h (0 Bft) N-NW 337 7,0 C 7,8 C 2,9 km/h (1 Bft)
30.09.2013 23:20 7,6 C 96 % 1011,5 hPa 0,0 l/m 1,4 km/h (1 Bft) NO 45 7,0 C 7,8 C 1,9 km/h (1 Bft)
30.09.2013 23:25 7,6 C 96 % 1011,2 hPa 0,0 l/m 0,8 km/h (0 Bft) W-NW 292 7,0 C 7,8 C 0,0 km/h (0 Bft)
30.09.2013 23:30 7,6 C 96 % 1011,2 hPa 0,0 l/m 0,2 km/h (0 Bft) O 90 7,0 C 7,8 C 0,0 km/h (0 Bft)
30.09.2013 23:35 7,6 C 96 % 1011,2 hPa 0,0 l/m 0,3 km/h (0 Bft) N 360 7,0 C 7,8 C 0,0 km/h (0 Bft)
30.09.2013 23:40 7,7 C 96 % 1011,2 hPa 0,0 l/m 0,3 km/h (0 Bft) NW 315 7,1 C 7,9 C 0,0 km/h (0 Bft)
30.09.2013 23:45 7,7 C 96 % 1011,3 hPa 0,0 l/m 0,0 km/h (0 Bft) N-NW 337 7,1 C 7,9 C 0,0 km/h (0 Bft)
30.09.2013 23:50 7,7 C 96 % 1011,3 hPa 0,0 l/m 0,0 km/h (0 Bft) NW 315 7,1 C 7,9 C 0,0 km/h (0 Bft)
30.09.2013 23:55 7,7 C 96 % 1011,3 hPa 0,0 l/m 0,0 km/h (0 Bft) NO 45 7,1 C 7,9 C 0,0 km/h (0 Bft)
_ Min-Zeit 09:35 16:20 06:20 - 23:55 - - 09:35 07:40 23:55
Minimum _ 7,0 C 95 % 1007,9 hPa - 0,0 km/h (0 Bft) - - 6,4 C 7,3 C 0,0 km/h (0 Bft)
_ Max-Zeit 14:45 23:55 23:20 03:10 13:10 - - 14:45 14:45 06:25
Maximum _ 8,2 C 96 % 1011,5 hPa 1,4 l/m 3,5 km/h
W (1 Bft)
- - 7,4 C 8,6 C 7,1 km/h
S-SW (2 Bft)
Durchschnitt _ 7,5 C 96 % 1009,3 hPa #6,2 l/m 1,1 km/h (1 Bft) N-NW - 6,9 C 7,8 C 1,5 km/h (1 Bft)